HKE680 RCKH-VHHH

Flight info

Callsign HKE680
Flight time 1h 2m
Altitude 34000
Route PARAS2A PARAS T7 WP521 G581 ELATO V522 ABBEY
Aircraft A321/M-SDE3FGHIRWY/LB1

Departure

Time 2026-04-25 11:49
Airport Kaohsiung International Airport (RCKH)

Arrival

Time 2026-04-25 12:51
Airport Hong Kong International Airport (VHHH)
Time Latitude Longitude Altitude Speed Heading
2026-04-25 11:29 22.57267 120.34128 39 ft 0 kts 91°
2026-04-25 11:39 22.57267 120.34123 38 ft 2 kts 91°
2026-04-25 11:39 22.57268 120.34102 38 ft 3 kts 98°
2026-04-25 11:39 22.57272 120.34080 35 ft 3 kts 110°
2026-04-25 11:40 22.57277 120.34067 35 ft 3 kts 124°
2026-04-25 11:40 22.57294 120.34051 34 ft 2 kts 176°
2026-04-25 11:40 22.57298 120.34051 35 ft 0 kts 182°
2026-04-25 11:42 22.57297 120.34051 35 ft 1 kts 182°
2026-04-25 11:43 22.57287 120.34048 36 ft 3 kts 195°
2026-04-25 11:43 22.57279 120.34052 36 ft 1 kts 140°
2026-04-25 11:43 22.57282 120.34060 35 ft 1 kts 72°
2026-04-25 11:43 22.57287 120.34062 34 ft 1 kts 25°
2026-04-25 11:44 22.57321 120.34057 36 ft 5 kts 350°
2026-04-25 11:44 22.57325 120.34056 37 ft 0 kts 350°
2026-04-25 11:45 22.57348 120.34054 38 ft 7 kts 358°
2026-04-25 11:46 22.57399 120.34038 38 ft 7 kts 323°
2026-04-25 11:46 22.57411 120.33998 38 ft 8 kts 273°
2026-04-25 11:46 22.57414 120.33912 38 ft 13 kts 271°
2026-04-25 11:46 22.57416 120.33813 38 ft 14 kts 272°
2026-04-25 11:47 22.57423 120.33709 38 ft 14 kts 283°
2026-04-25 11:47 22.57483 120.33631 37 ft 14 kts 317°
2026-04-25 11:47 22.57557 120.33558 37 ft 15 kts 317°
2026-04-25 11:47 22.57641 120.33504 38 ft 11 kts 356°
2026-04-25 11:48 22.57721 120.33509 37 ft 12 kts 15°
2026-04-25 11:48 22.57751 120.33560 38 ft 0 kts 83°
2026-04-25 11:48 22.57751 120.33561 38 ft 1 kts 85°
2026-04-25 11:48 22.57749 120.33634 38 ft 30 kts 92°
2026-04-25 11:49 22.57734 120.34143 38 ft 102 kts 92°
2026-04-25 11:49 22.57705 120.35123 38 ft 159 kts 92°
2026-04-25 11:49 22.57661 120.36367 603 ft 159 kts 92°
2026-04-25 11:49 22.57538 120.37569 1230 ft 165 kts 111°
2026-04-25 11:50 22.56828 120.38507 1838 ft 158 kts 146°
2026-04-25 11:50 22.55765 120.38926 2137 ft 174 kts 180°
2026-04-25 11:50 22.54547 120.38602 2342 ft 193 kts 212°
2026-04-25 11:50 22.53454 120.37630 2605 ft 211 kts 222°
2026-04-25 11:51 22.52339 120.36552 3170 ft 216 kts 224°
2026-04-25 11:51 22.51230 120.35461 3984 ft 215 kts 224°
2026-04-25 11:51 22.50115 120.34368 4729 ft 217 kts 223°
2026-04-25 11:51 22.49002 120.33282 5431 ft 220 kts 223°
2026-04-25 11:52 22.47852 120.32165 6023 ft 230 kts 223°
2026-04-25 11:52 22.46602 120.30955 6324 ft 253 kts 223°
2026-04-25 11:52 22.45230 120.29631 6603 ft 276 kts 223°
2026-04-25 11:52 22.43736 120.28192 6845 ft 299 kts 223°
2026-04-25 11:53 22.42123 120.26643 7138 ft 319 kts 223°
2026-04-25 11:53 22.40444 120.25033 7762 ft 325 kts 223°
2026-04-25 11:53 22.38740 120.23403 8477 ft 329 kts 223°
2026-04-25 11:53 22.37016 120.21757 9184 ft 332 kts 222°
2026-04-25 11:54 22.35297 120.20120 9870 ft 335 kts 222°
2026-04-25 11:54 22.33539 120.18443 10490 ft 339 kts 223°
2026-04-25 11:54 22.30081 120.14939 11784 ft 344 kts 235°
2026-04-25 11:55 22.29075 120.12608 12364 ft 346 kts 256°
2026-04-25 11:55 22.28514 120.10074 12997 ft 348 kts 257°
2026-04-25 11:55 22.27979 120.07528 13603 ft 353 kts 258°
2026-04-25 11:55 22.27432 120.04869 13732 ft 370 kts 258°
2026-04-25 11:56 22.26860 120.02100 13861 ft 387 kts 258°
2026-04-25 11:56 22.26277 119.99248 14123 ft 399 kts 258°
2026-04-25 11:56 22.25724 119.96500 16012 ft 359 kts 258°
2026-04-25 11:56 22.25170 119.93826 16388 ft 373 kts 257°
2026-04-25 11:57 22.24563 119.91041 16522 ft 389 kts 257°
2026-04-25 11:57 22.23921 119.88145 16655 ft 404 kts 257°
2026-04-25 11:57 22.23257 119.85153 16882 ft 414 kts 257°
2026-04-25 11:57 22.22588 119.82113 17420 ft 413 kts 257°
2026-04-25 11:58 22.21947 119.79167 18672 ft 394 kts 257°
2026-04-25 11:58 22.21348 119.76396 19951 ft 375 kts 257°
2026-04-25 11:58 22.20775 119.73730 21237 ft 355 kts 257°
2026-04-25 11:58 22.20237 119.71213 22462 ft 334 kts 257°
2026-04-25 11:59 22.19732 119.68846 23480 ft 319 kts 257°
2026-04-25 11:59 22.19221 119.66464 23628 ft 332 kts 257°
2026-04-25 11:59 22.18689 119.63997 23760 ft 344 kts 257°
2026-04-25 12:00 22.17564 119.58809 24022 ft 367 kts 257°
2026-04-25 12:00 22.16971 119.56087 24152 ft 378 kts 257°
2026-04-25 12:00 22.16081 119.50391 24434 ft 398 kts 268°
2026-04-25 12:01 22.16033 119.48354 24520 ft 405 kts 269°
2026-04-25 12:01 22.15933 119.44273 24686 ft 417 kts 269°
2026-04-25 12:01 22.15849 119.41113 24810 ft 426 kts 268°
2026-04-25 12:01 22.15761 119.37888 24937 ft 434 kts 268°
2026-04-25 12:02 22.15576 119.31263 25190 ft 449 kts 268°
2026-04-25 12:02 22.15479 119.27876 25361 ft 455 kts 268°
2026-04-25 12:02 22.15383 119.24455 25702 ft 457 kts 268°
2026-04-25 12:03 22.15287 119.21025 26113 ft 456 kts 268°
2026-04-25 12:03 22.15193 119.17660 26528 ft 455 kts 268°
2026-04-25 12:03 22.15095 119.14248 26943 ft 455 kts 268°
2026-04-25 12:03 22.14998 119.10843 27357 ft 454 kts 269°
2026-04-25 12:04 22.15121 119.07449 27755 ft 453 kts 277°
2026-04-25 12:04 22.15539 119.04086 28145 ft 452 kts 278°
2026-04-25 12:04 22.15956 119.00728 28551 ft 451 kts 277°
2026-04-25 12:04 22.16361 118.97376 28941 ft 450 kts 277°
2026-04-25 12:05 22.16762 118.94028 29336 ft 449 kts 277°
2026-04-25 12:05 22.17150 118.90730 29702 ft 449 kts 277°
2026-04-25 12:05 22.17548 118.87349 30074 ft 448 kts 277°
2026-04-25 12:05 22.17937 118.84070 30435 ft 447 kts 278°
2026-04-25 12:06 22.18329 118.80745 30784 ft 446 kts 277°
2026-04-25 12:06 22.18722 118.77425 31134 ft 446 kts 277°
2026-04-25 12:06 22.19118 118.74111 31478 ft 445 kts 277°
2026-04-25 12:06 22.19514 118.70802 31817 ft 444 kts 277°
2026-04-25 12:07 22.19910 118.67498 32149 ft 444 kts 277°
2026-04-25 12:07 22.20302 118.64198 32481 ft 443 kts 277°
2026-04-25 12:07 22.20687 118.60903 32793 ft 442 kts 277°
2026-04-25 12:07 22.21062 118.57656 33098 ft 442 kts 277°
2026-04-25 12:08 22.21442 118.54370 33403 ft 441 kts 277°
2026-04-25 12:08 22.21826 118.51089 33701 ft 440 kts 277°
2026-04-25 12:08 22.22210 118.47821 33942 ft 439 kts 277°
2026-04-25 12:08 22.22595 118.44524 34006 ft 444 kts 277°
2026-04-25 12:09 22.23381 118.37833 34011 ft 455 kts 277°
2026-04-25 12:09 22.24185 118.30985 34011 ft 464 kts 277°
2026-04-25 12:10 22.24969 118.24178 34005 ft 451 kts 277°
2026-04-25 12:10 22.25727 118.17504 34009 ft 446 kts 277°
2026-04-25 12:11 22.26485 118.10830 34011 ft 452 kts 277°
2026-04-25 12:11 22.27242 118.04016 34011 ft 462 kts 277°
2026-04-25 12:12 22.27868 117.98283 34005 ft 457 kts 277°
2026-04-25 12:12 22.28755 117.90465 34009 ft 454 kts 277°
2026-04-25 12:13 22.29544 117.83629 34009 ft 463 kts 277°
2026-04-25 12:13 22.30335 117.76704 34432 ft 461 kts 277°
2026-04-25 12:14 22.30718 117.73326 34840 ft 448 kts 277°
2026-04-25 12:14 22.31094 117.69964 34279 ft 452 kts 277°
2026-04-25 12:14 22.31472 117.66623 34005 ft 445 kts 277°
2026-04-25 12:14 22.31842 117.63355 34008 ft 445 kts 277°
2026-04-25 12:15 22.32587 117.56711 34009 ft 446 kts 277°
2026-04-25 12:15 22.33290 117.50061 34008 ft 446 kts 273°
2026-04-25 12:16 22.33221 117.43374 34009 ft 446 kts 269°
2026-04-25 12:16 22.33095 117.36677 34011 ft 446 kts 269°
2026-04-25 12:17 22.32976 117.30019 34016 ft 447 kts 269°
2026-04-25 12:17 22.32855 117.23311 34014 ft 447 kts 269°
2026-04-25 12:18 22.32727 117.16580 34029 ft 450 kts 269°
2026-04-25 12:18 22.32599 117.09838 34039 ft 449 kts 269°
2026-04-25 12:19 22.32404 116.99797 33672 ft 446 kts 269°
2026-04-25 12:19 22.32339 116.96445 33448 ft 446 kts 269°
2026-04-25 12:20 22.32272 116.93092 33243 ft 447 kts 269°
2026-04-25 12:20 22.32201 116.89737 33064 ft 447 kts 269°
2026-04-25 12:20 22.32129 116.86377 32890 ft 448 kts 269°
2026-04-25 12:20 22.32055 116.83015 32717 ft 448 kts 269°
2026-04-25 12:21 22.31981 116.79694 32545 ft 448 kts 269°
2026-04-25 12:21 22.31905 116.76327 32371 ft 449 kts 269°
2026-04-25 12:21 22.31829 116.72956 32195 ft 449 kts 269°
2026-04-25 12:21 22.31753 116.69583 32020 ft 449 kts 269°
2026-04-25 12:22 22.31680 116.66207 31845 ft 450 kts 269°
2026-04-25 12:22 22.31607 116.62828 31670 ft 450 kts 269°
2026-04-25 12:22 22.31534 116.59455 31495 ft 450 kts 269°
2026-04-25 12:22 22.31485 116.57212 31364 ft 451 kts 269°
2026-04-25 12:23 22.31383 116.52685 31095 ft 451 kts 269°
2026-04-25 12:23 22.31308 116.49340 30898 ft 452 kts 269°
2026-04-25 12:23 22.31231 116.45947 30698 ft 452 kts 269°
2026-04-25 12:23 22.31153 116.42549 30498 ft 453 kts 269°
2026-04-25 12:24 22.31072 116.39149 30298 ft 453 kts 269°
2026-04-25 12:24 22.30989 116.35745 30098 ft 454 kts 269°
2026-04-25 12:24 22.30904 116.32339 29897 ft 454 kts 269°
2026-04-25 12:24 22.30848 116.30086 29765 ft 454 kts 269°
2026-04-25 12:25 22.30793 116.27825 29635 ft 454 kts 269°
2026-04-25 12:25 22.30654 116.22134 29263 ft 459 kts 269°
2026-04-25 12:25 22.30567 116.18681 29038 ft 461 kts 269°
2026-04-25 12:25 22.30478 116.15222 28813 ft 462 kts 269°
2026-04-25 12:26 22.30387 116.11753 28587 ft 462 kts 268°
2026-04-25 12:26 22.30326 116.09452 28440 ft 463 kts 268°
2026-04-25 12:26 22.30236 116.05978 28215 ft 463 kts 269°
2026-04-25 12:26 22.30145 116.02480 27986 ft 472 kts 268°
2026-04-25 12:27 22.30021 115.97815 27740 ft 467 kts 268°
2026-04-25 12:27 22.29928 115.94318 27516 ft 465 kts 268°
2026-04-25 12:27 22.29837 115.90825 27311 ft 465 kts 268°
2026-04-25 12:27 22.29775 115.88471 27246 ft 466 kts 269°
2026-04-25 12:28 22.29684 115.85021 27020 ft 466 kts 268°
2026-04-25 12:28 22.29587 115.81522 26773 ft 466 kts 268°
2026-04-25 12:28 22.29492 115.78027 26523 ft 464 kts 268°
2026-04-25 12:28 22.29399 115.74556 26270 ft 462 kts 268°
2026-04-25 12:29 22.29274 115.69964 25939 ft 463 kts 268°
2026-04-25 12:29 22.29213 115.67617 25799 ft 462 kts 269°
2026-04-25 12:29 22.29096 115.63026 25535 ft 462 kts 269°
2026-04-25 12:29 22.29036 115.60727 25358 ft 462 kts 269°
2026-04-25 12:30 22.28944 115.57256 25120 ft 463 kts 268°
2026-04-25 12:30 22.28848 115.53782 24877 ft 463 kts 268°
2026-04-25 12:30 22.28747 115.50303 24610 ft 464 kts 268°
2026-04-25 12:30 22.28645 115.46826 23614 ft 463 kts 268°
2026-04-25 12:31 22.28542 115.43340 22769 ft 466 kts 268°
2026-04-25 12:31 22.28441 115.39862 21907 ft 461 kts 268°
2026-04-25 12:31 22.28314 115.35307 20798 ft 456 kts 268°
2026-04-25 12:31 22.28250 115.33004 20255 ft 452 kts 268°
2026-04-25 12:32 22.28153 115.29673 19443 ft 447 kts 268°
2026-04-25 12:32 22.28052 115.26344 18658 ft 442 kts 268°
2026-04-25 12:32 22.27947 115.23044 17880 ft 437 kts 268°
2026-04-25 12:32 22.27845 115.19814 17260 ft 425 kts 268°
2026-04-25 12:33 22.27745 115.16640 16544 ft 424 kts 268°
2026-04-25 12:33 22.27647 115.13479 15880 ft 417 kts 268°
2026-04-25 12:33 22.27552 115.10355 15085 ft 416 kts 268°
2026-04-25 12:33 22.27456 115.07301 14529 ft 408 kts 268°
2026-04-25 12:34 22.27356 115.04284 13977 ft 396 kts 268°
2026-04-25 12:34 22.27258 115.01362 13126 ft 387 kts 268°
2026-04-25 12:34 22.27163 114.98433 12542 ft 390 kts 268°
2026-04-25 12:34 22.27100 114.96497 12150 ft 388 kts 268°
2026-04-25 12:35 22.26975 114.92629 11775 ft 385 kts 268°
2026-04-25 12:35 22.26882 114.89734 11682 ft 386 kts 268°
2026-04-25 12:35 22.26770 114.86846 11447 ft 385 kts 267°
2026-04-25 12:35 22.26624 114.83996 11200 ft 384 kts 266°
2026-04-25 12:36 22.26451 114.81122 10955 ft 392 kts 266°
2026-04-25 12:36 22.26264 114.78150 11340 ft 389 kts 266°
2026-04-25 12:36 22.26081 114.75229 11420 ft 388 kts 266°
2026-04-25 12:36 22.25906 114.72346 11172 ft 384 kts 266°
2026-04-25 12:37 22.25736 114.69473 10922 ft 382 kts 266°
2026-04-25 12:37 22.25568 114.66614 10664 ft 381 kts 266°
2026-04-25 12:37 22.25400 114.63764 10421 ft 380 kts 266°
2026-04-25 12:37 22.25234 114.60963 10174 ft 378 kts 266°
2026-04-25 12:38 22.25067 114.58134 9933 ft 377 kts 266°
2026-04-25 12:38 22.24903 114.55314 9812 ft 376 kts 266°
2026-04-25 12:38 22.24737 114.52497 9682 ft 376 kts 266°
2026-04-25 12:38 22.24572 114.49685 9557 ft 375 kts 266°
2026-04-25 12:39 22.24404 114.46884 9432 ft 374 kts 266°
2026-04-25 12:39 22.24233 114.44081 9307 ft 374 kts 266°
2026-04-25 12:39 22.24066 114.41282 9182 ft 373 kts 266°
2026-04-25 12:39 22.23898 114.38489 9057 ft 373 kts 266°
2026-04-25 12:40 22.23731 114.35737 8933 ft 372 kts 266°
2026-04-25 12:40 22.23564 114.32953 8808 ft 371 kts 266°
2026-04-25 12:40 22.23398 114.30174 8682 ft 371 kts 266°
2026-04-25 12:40 22.23231 114.27400 8557 ft 370 kts 266°
2026-04-25 12:41 22.23061 114.24634 8433 ft 372 kts 266°
2026-04-25 12:41 22.22887 114.21830 8308 ft 376 kts 266°
2026-04-25 12:41 22.22712 114.19013 8184 ft 376 kts 266°
2026-04-25 12:41 22.22536 114.16201 8059 ft 375 kts 266°
2026-04-25 12:42 22.22361 114.13431 7935 ft 374 kts 266°
2026-04-25 12:42 22.22242 114.11537 7851 ft 374 kts 266°
2026-04-25 12:42 22.22013 114.07833 7682 ft 373 kts 266°
2026-04-25 12:42 22.21845 114.05093 7552 ft 358 kts 266°
2026-04-25 12:43 22.21680 114.02426 7424 ft 355 kts 266°
2026-04-25 12:43 22.21516 113.99771 7302 ft 354 kts 266°
2026-04-25 12:43 22.21199 113.94726 6867 ft 308 kts 266°
2026-04-25 12:44 22.21057 113.92538 6680 ft 278 kts 266°
2026-04-25 12:44 22.20929 113.90547 6251 ft 264 kts 266°
2026-04-25 12:44 22.20687 113.86718 5339 ft 239 kts 266°
2026-04-25 12:45 22.20577 113.84987 4813 ft 227 kts 266°
2026-04-25 12:45 22.20467 113.83303 4444 ft 223 kts 266°
2026-04-25 12:45 22.20265 113.80129 4145 ft 197 kts 266°
2026-04-25 12:46 22.20175 113.78714 4069 ft 184 kts 266°
2026-04-25 12:46 22.20092 113.77369 3963 ft 179 kts 267°
2026-04-25 12:46 22.20326 113.76108 3868 ft 165 kts 296°
2026-04-25 12:46 22.21045 113.75214 3815 ft 152 kts 322°
2026-04-25 12:47 22.21983 113.74722 3598 ft 150 kts 342°
2026-04-25 12:47 22.23011 113.74625 3234 ft 150 kts
2026-04-25 12:47 22.24004 113.74943 2954 ft 151 kts 25°
2026-04-25 12:47 22.24831 113.75642 2760 ft 153 kts 47°
2026-04-25 12:48 22.25365 113.76627 2567 ft 154 kts 70°
2026-04-25 12:48 22.25717 113.77716 2377 ft 154 kts 70°
2026-04-25 12:48 22.26069 113.78802 2173 ft 153 kts 70°
2026-04-25 12:48 22.26414 113.79871 1975 ft 153 kts 70°
2026-04-25 12:49 22.26764 113.80951 1773 ft 152 kts 70°
2026-04-25 12:49 22.27115 113.82024 1569 ft 152 kts 70°
2026-04-25 12:49 22.27461 113.83101 1353 ft 151 kts 70°
2026-04-25 12:49 22.27806 113.84169 1142 ft 151 kts 70°
2026-04-25 12:50 22.28152 113.85236 990 ft 151 kts 70°
2026-04-25 12:50 22.28497 113.86303 795 ft 150 kts 70°
2026-04-25 12:50 22.28840 113.87366 564 ft 149 kts 70°
2026-04-25 12:50 22.29178 113.88417 379 ft 148 kts 70°
2026-04-25 12:51 22.29515 113.89467 198 ft 148 kts 70°
2026-04-25 12:51 22.29841 113.90491 52 ft 139 kts 71°
2026-04-25 12:51 22.30114 113.91320 35 ft 81 kts 71°
2026-04-25 12:51 22.30235 113.91703 33 ft 45 kts 71°
2026-04-25 12:52 22.30351 113.91975 34 ft 33 kts 53°
2026-04-25 12:52 22.30499 113.92110 35 ft 21 kts 35°
2026-04-25 12:52 22.30582 113.92194 35 ft 9 kts 28°
2026-04-25 12:52 22.30587 113.92196 35 ft 0 kts 23°
2026-04-25 12:53 22.30589 113.92197 35 ft 0 kts 22°
2026-04-25 12:53 22.30594 113.92200 35 ft 5 kts 28°
2026-04-25 12:53 22.30606 113.92211 35 ft 4 kts 44°
2026-04-25 12:53 22.30622 113.92306 35 ft 16 kts 86°
2026-04-25 12:54 22.30633 113.92358 35 ft 2 kts 62°
2026-04-25 12:54 22.30642 113.92364 35 ft 0 kts 34°
2026-04-25 12:54 22.30650 113.92378 35 ft 14 kts 63°
2026-04-25 12:55 22.30694 113.92551 35 ft 26 kts 71°
2026-04-25 12:55 22.30734 113.92674 35 ft 26 kts 70°
2026-04-25 12:55 22.30816 113.92927 34 ft 27 kts 70°
2026-04-25 12:55 22.30877 113.93110 35 ft 22 kts 76°
2026-04-25 12:56 22.30940 113.93179 35 ft 10 kts 348°
2026-04-25 12:56 22.31009 113.93150 35 ft 11 kts 335°
2026-04-25 12:56 22.31069 113.93112 35 ft 7 kts 294°
2026-04-25 12:56 22.31058 113.93057 35 ft 8 kts 249°
2026-04-25 12:57 22.31049 113.93032 35 ft 1 kts 250°
2026-04-25 12:57 22.31048 113.93027 35 ft 0 kts 250°